Location: Newark
(52.3500°N, 175.9667°E)
Time: 06:54:32
(UTC+00:00)

S-56A Canister/Altair - Pass Details

Date: 26 April 2021
Orbit: 631 x 2501 km, 38.9° (Epoch: 12 May)

Event Time Altitude Azimuth Distance (km) Brightness Sun altitude
Rises 12:32:43 0° 257° (WSW) 4,606 11.3 -23.8°
Enters shadow 12:36:14 - 247° (WSW) 3,462 10.6 -23.8°
Reaches altitude 10° 12:36:50 10° 245° (WSW) 3,274 - -23.8°
Maximum altitude 12:42:42 24° 196° (SSW) 1,950 - -23.7°
Drops below altitude 10° 12:47:12 10° 143° (SE) 2,430 - -23.6°
Sets 12:49:46 0° 129° (SE) 3,189 - -23.5°
